CW5111 Weather Reports


time (UTC)temp
F
wind
direction
speed
knots
gust
knots
rain 1hr
in
rain 24hr
in
rain mn
in
humidity
%
barometer
mb
20260502221503 53 22 0.9 3.5 0.03 0.21 0.21 93 1009.8
20260502220004 54 7 0.9 1.7 0.01 0.19 0.19 93 1009.9
20260502214503 53 359 0.9 4.3 0.01 0.19 0.19 93 1010.1
20260502213003 54 238 1.7 4.3 0.01 0.18 0.18 93 1010.4
20260502210004 53 29 0.9 3.5 0.01 0.17 0.17 93 1010.5
20260502204503 54 24 1.7 4.3 0.01 0.17 0.17 93 1010.5
20260502203003 53 354 2.6 6.1 0.00 0.17 0.17 92 1010.6
20260502194503 54 351 2.6 5.2 0.01 0.17 0.17 92 1010.8
20260502193004 54 354 1.7 5.2 0.02 0.17 0.17 91 1010.9
20260502191503 54 355 1.7 5.2 0.03 0.16 0.16 91 1011.1
20260502190004 54 354 1.7 3.5 0.06 0.16 0.16 91 1011.3
20260502184503 55 357 1.7 5.2 0.08 0.15 0.15 90 1011.4
20260502183003 56 341 0.9 3.5 0.12 0.15 0.15 90 1011.5
20260502181503 56 240 0.9 1.7 0.12 0.12 0.12 89 1011.9
20260502163003 63 12 0.9 1.7 0.00 0.00 0.00 62 1012.0
20260502161503 63 243 0.9 1.7 0.00 0.00 0.00 62 1012.1
20260502151503 63 216 1.7 4.3 0.00 0.00 0.00 62 1013.0
20260502123003 63 192 2.6 9.6 0.00 0.00 0.00 59 1015.2
20260502121503 65 244 2.6 7.0 0.00 0.00 0.00 62 1015.3
20260502114504 62 203 2.6 6.1 0.00 0.00 0.00 60 1015.8
20260502113004 63 186 2.6 7.8 0.00 0.00 0.00 58 1015.8
20260502111504 62 151 3.5 7.8 0.00 0.00 0.00 62 1015.9
20260502110004 63 171 2.6 6.1 0.00 0.00 0.00 63 1016.2
20260502104503 62 179 2.6 8.7 0.00 0.00 0.00 65 1016.6
20260502103003 63 227 2.6 8.7 0.00 0.00 0.00 63 1016.5
20260502101504 61 228 1.7 6.1 0.00 0.00 0.00 68 1016.4
20260502091504 59 225 1.7 4.3 0.00 0.00 0.00 71 1017.1
20260502071504 50 229 0.9 2.6 0.00 0.00 0.00 89 1017.6
20260502070004 49 237 0.9 2.6 0.00 0.00 0.00 89 1017.6
20260502064503 49 246 0.9 2.6 0.00 0.00 0.00 91 1017.4
20260502063003 49 257 1.7 3.5 0.00 0.00 0.00 92 1017.4
20260502061503 48 246 1.7 4.3 0.00 0.00 0.00 94 1017.4
20260502060005 47 240 0.9 3.5 0.00 0.00 0.00 94 1017.3
20260502054503 47 224 0.9 2.6 0.00 0.00 0.00 94 1017.2
20260502053003 46 225 0.9 2.6 0.00 0.00 0.00 94 1017.2
20260502051503 46 232 0.9 2.6 0.00 0.00 0.00 94 1017.2
20260502050004 45 235 0.9 2.6 0.00 0.00 0.00 94 1017.2
20260502044504 45 198 0.9 1.7 0.00 0.00 0.00 93 1017.3
20260502043003 45 194 0.9 1.7 0.00 0.00 0.00 93 1017.2
20260502041504 46 183 0.9 1.7 0.00 0.00 0.00 93 1017.2
20260502040005 46 176 0.9 1.7 0.00 0.00 0.00 92 1017.4
20260502034503 47 168 0.9 1.7 0.00 0.00 0.00 92 1017.4
20260502033003 47 181 0.9 1.7 0.00 0.00 0.00 92 1017.5
20260502031503 48 0 0.0 0.9 0.00 0.00 0.00 92 1017.5
20260502030004 48 0 0.0 0.9 0.00 0.00 0.00 91 1017.5
20260502023003 49 243 0.9 1.7 0.00 0.00 0.00 91 1017.6
20260502020005 50 240 0.9 1.7 0.00 0.00 0.00 92 1017.8
20260502014503 50 241 0.9 2.6 0.00 0.00 0.00 92 1017.9
20260502013003 48 0 0.0 1.7 0.00 0.00 0.00 90 1018.1
20260502011504 49 0 0.0 0.9 0.00 0.00 0.00 89 1018.2
20260502010004 50 237 0.9 0.9 0.00 0.00 0.00 89 1018.2
20260502004504 50 244 0.9 1.7 0.00 0.00 0.00 89 1018.5
20260502003004 51 245 0.9 1.7 0.00 0.00 0.00 88 1018.6
20260502000004 53 251 0.9 2.6 0.00 0.00 0.00 88 1018.7
20260501234503 53 253 0.9 2.6 0.00 0.00 0.00 87 1018.7
20260501233003 55 247 0.9 2.6 0.00 0.00 0.00 86 1018.7
20260501231503 55 257 1.7 4.3 0.00 0.00 0.00 87 1018.9
20260501230007 55 252 0.9 4.3 0.00 0.00 0.00 87 1018.8
20260501224504 56 237 0.9 2.6 0.00 0.00 0.00 87 1018.8
20260501223003 56 246 1.7 4.3 0.00 0.00 0.00 87 1018.7